• In Deutschland
  • Länderverzeichnis
  • Für 7 Tage
  • Wassertemperatur
  • Satellitenkarten
  • Wetterkarte
  • Widgets
  • user-avatar
    Anmelden

    Stündliche Wetter Stepanakert

    Heute, 20 November, Montag

    Zeit Temperatur Niederschläge Wind Luftdruck Luftfeuchtigkeit
    00:00 +11°C° 0 mm 1 m/S 692 mmHg 43%
    01:00 +11°C° 0 mm 1 m/S 692 mmHg 43%
    02:00 +10°C° 0 mm 2 m/S 692 mmHg 42%
    03:00 +10°C° 0 mm 2 m/S 692 mmHg 40%
    04:00 +10°C° 0 mm 2 m/S 692 mmHg 41%
    05:00 +10°C° 0 mm 2 m/S 692 mmHg 42%
    06:00 +10°C° 0 mm 2 m/S 692 mmHg 43%
    07:00 +12°C° 0 mm 2 m/S 692 mmHg 40%
    08:00 +13°C° 0 mm 2 m/S 692 mmHg 38%
    09:00 +15°C° 0 mm 2 m/S 692 mmHg 36%
    10:00 +16°C° 0 mm 2 m/S 692 mmHg 33%
    11:00 +17°C° 0 mm 2 m/S 692 mmHg 30%
    12:00 +18°C° 0 mm 2 m/S 692 mmHg 27%
    13:00 +18°C° 0 mm 2 m/S 692 mmHg 29%
    14:00 +18°C° 0 mm 2 m/S 691 mmHg 30%
    15:00 +18°C° 0 mm 2 m/S 691 mmHg 32%
    16:00 +16°C° 0 mm 2 m/S 691 mmHg 37%
    17:00 +14°C° 0 mm 1 m/S 690 mmHg 42%
    18:00 +13°C° 0 mm 1 m/S 690 mmHg 46%
    19:00 +12°C° 0 mm 1 m/S 690 mmHg 47%
    20:00 +12°C° 0 mm 1 m/S 690 mmHg 47%
    21:00 +12°C° 0 mm 2 m/S 690 mmHg 47%
    22:00 +12°C° 0 mm 2 m/S 689 mmHg 47%
    23:00 +12°C° 0 mm 2 m/S 689 mmHg 48%

    Morgen, 21 November, Dienstag

    Zeit Temperatur Niederschläge Wind Luftdruck Luftfeuchtigkeit
    00:00 +12°C° 0 mm 2 m/S 689 mmHg 48%
    01:00 +10°C° 0 mm 2 m/S 689 mmHg 48%
    02:00 +10°C° 0 mm 2 m/S 689 mmHg 48%
    03:00 +10°C° 0 mm 2 m/S 689 mmHg 48%
    04:00 +10°C° 0 mm 2 m/S 689 mmHg 48%
    05:00 +10°C° 0 mm 2 m/S 688 mmHg 48%
    06:00 +11°C° 0 mm 1 m/S 688 mmHg 48%
    07:00 +12°C° 0 mm 1 m/S 688 mmHg 46%
    08:00 +13°C° 0 mm 1 m/S 688 mmHg 43%
    09:00 +14°C° 0 mm 1 m/S 688 mmHg 40%
    10:00 +15°C° 0 mm 1 m/S 688 mmHg 38%
    11:00 +16°C° 0 mm 2 m/S 688 mmHg 35%
    12:00 +17°C° 0 mm 2 m/S 687 mmHg 33%
    13:00 +17°C° 0 mm 2 m/S 687 mmHg 34%
    14:00 +17°C° 0 mm 2 m/S 686 mmHg 36%
    15:00 +16°C° 0 mm 2 m/S 686 mmHg 38%
    16:00 +15°C° 0 mm 2 m/S 686 mmHg 42%
    17:00 +14°C° 0 mm 1 m/S 685 mmHg 46%
    18:00 +13°C° 0 mm 1 m/S 685 mmHg 50%
    19:00 +12°C° 0 mm 1 m/S 685 mmHg 51%
    20:00 +12°C° 0 mm 1 m/S 685 mmHg 52%
    21:00 +12°C° 0 mm 1 m/S 685 mmHg 53%
    22:00 +12°C° 0 mm 1 m/S 684 mmHg 53%
    23:00 +12°C° 0 mm 1 m/S 684 mmHg 54%

    übermorgen, 22 November, Mittwoch

    Zeit Temperatur Niederschläge Wind Luftdruck Luftfeuchtigkeit
    00:00 +10°C° 0 mm 2 m/S 684 mmHg 54%
    01:00 +10°C° 0 mm 2 m/S 684 mmHg 55%
    02:00 +10°C° 0 mm 2 m/S 683 mmHg 56%
    03:00 +9°C° 0 mm 2 m/S 683 mmHg 56%
    04:00 +9°C° 0 mm 2 m/S 683 mmHg 56%
    05:00 +9°C° 0 mm 2 m/S 683 mmHg 56%
    06:00 +9°C° 0 mm 2 m/S 683 mmHg 55%
    07:00 +10°C° 0 mm 2 m/S 683 mmHg 53%
    08:00 +12°C° 0 mm 2 m/S 684 mmHg 51%
    09:00 +12°C° 0 mm 2 m/S 685 mmHg 49%
    10:00 +12°C° 0 mm 3 m/S 685 mmHg 48%
    11:00 +12°C° 0 mm 4 m/S 685 mmHg 47%
    12:00 +13°C° 0 mm 5 m/S 685 mmHg 45%
    13:00 +12°C° 0,1 mm 4 m/S 685 mmHg 48%
    14:00 +11°C° 0,1 mm 4 m/S 685 mmHg 51%
    15:00 +10°C° 0,1 mm 4 m/S 685 mmHg 54%
    16:00 +9°C° 0,2 mm 3 m/S 685 mmHg 58%
    17:00 +8°C° 0,2 mm 3 m/S 686 mmHg 62%
    18:00 +7°C° 0,2 mm 2 m/S 686 mmHg 66%
    19:00 +5°C° 0,3 mm 3 m/S 687 mmHg 68%
    20:00 +5°C° 0,3 mm 3 m/S 687 mmHg 69%
    21:00 +5°C° 0,3 mm 3 m/S 688 mmHg 70%
    22:00 +4°C° 0,2 mm 3 m/S 688 mmHg 70%
    23:00 +5°C° 0,2 mm 2 m/S 688 mmHg 69%

    23 November, Donnerstag

    Zeit Temperatur Niederschläge Wind Luftdruck Luftfeuchtigkeit
    00:00 +5°C° 0,2 mm 2 m/S 689 mmHg 69%
    01:00 +4°C° 0 mm 2 m/S 689 mmHg 69%
    02:00 +4°C° 0 mm 2 m/S 689 mmHg 70%
    03:00 +5°C° 0 mm 1 m/S 689 mmHg 70%
    04:00 +4°C° 0,1 mm 1 m/S 689 mmHg 71%
    05:00 +4°C° 0,1 mm 1 m/S 689 mmHg 72%
    06:00 +4°C° 0,1 mm 1 m/S 689 mmHg 72%
    07:00 +4°C° 0 mm 1 m/S 690 mmHg 69%
    08:00 +5°C° 0 mm 1 m/S 690 mmHg 67%
    09:00 +5°C° 0 mm 1 m/S 690 mmHg 64%
    10:00 +5°C° 0 mm 2 m/S 690 mmHg 59%
    11:00 +6°C° 0 mm 2 m/S 690 mmHg 55%
    12:00 +7°C° 0 mm 2 m/S 690 mmHg 51%
    13:00 +6°C° 0 mm 2 m/S 690 mmHg 52%
    14:00 +6°C° 0 mm 2 m/S 690 mmHg 53%
    15:00 +6°C° 0 mm 2 m/S 690 mmHg 54%
    16:00 +5°C° 0 mm 2 m/S 690 mmHg 60%
    17:00 +5°C° 0 mm 1 m/S 690 mmHg 66%
    18:00 +4°C° 0 mm 1 m/S 690 mmHg 73%
    19:00 +4°C° 0 mm 1 m/S 690 mmHg 72%
    20:00 +4°C° 0 mm 1 m/S 690 mmHg 72%
    21:00 +3°C° 0 mm 1 m/S 691 mmHg 72%
    22:00 +3°C° 0 mm 1 m/S 691 mmHg 70%
    23:00 +3°C° 0 mm 1 m/S 691 mmHg 68%

    24 November, Freitag

    Zeit Temperatur Niederschläge Wind Luftdruck Luftfeuchtigkeit
    00:00 +3°C° 0 mm 1 m/S 691 mmHg 67%
    01:00 +3°C° 0 mm 1 m/S 691 mmHg 66%
    02:00 +2°C° 0 mm 1 m/S 691 mmHg 65%
    03:00 +2°C° 0 mm 1 m/S 691 mmHg 64%
    04:00 +2°C° 0 mm 1 m/S 691 mmHg 63%
    05:00 +2°C° 0 mm 1 m/S 691 mmHg 63%
    06:00 +1°C° 0 mm 2 m/S 692 mmHg 63%
    07:00 +1°C° 0 mm 2 m/S 692 mmHg 60%
    08:00 +2°C° 0 mm 2 m/S 692 mmHg 58%
    09:00 +3°C° 0 mm 2 m/S 693 mmHg 55%
    10:00 +2°C° 0 mm 3 m/S 693 mmHg 54%
    11:00 +3°C° 0 mm 3 m/S 692 mmHg 53%
    12:00 +4°C° 0 mm 3 m/S 692 mmHg 52%
    13:00 +3°C° 0,1 mm 3 m/S 692 mmHg 53%
    14:00 +3°C° 0,1 mm 3 m/S 692 mmHg 54%
    15:00 +3°C° 0,1 mm 3 m/S 692 mmHg 55%
    16:00 +3°C° 0 mm 2 m/S 693 mmHg 58%
    17:00 +2°C° 0 mm 2 m/S 693 mmHg 61%
    18:00 +3°C° 0 mm 1 m/S 693 mmHg 65%
    19:00 +2°C° 0 mm 1 m/S 693 mmHg 65%
    20:00 +2°C° 0 mm 1 m/S 694 mmHg 65%
    21:00 +2°C° 0 mm 1 m/S 694 mmHg 66%
    22:00 +2°C° 0 mm 1 m/S 694 mmHg 66%
    23:00 +2°C° 0 mm 1 m/S 694 mmHg 66%

    25 November, Samstag

    Zeit Temperatur Niederschläge Wind Luftdruck Luftfeuchtigkeit
    00:00 +2°C° 0 mm 1 m/S 694 mmHg 65%
    01:00 +2°C° 0 mm 1 m/S 694 mmHg 65%
    02:00 +1°C° 0 mm 1 m/S 695 mmHg 65%
    03:00 +1°C° 0 mm 1 m/S 695 mmHg 65%
    04:00 +1°C° 0 mm 1 m/S 695 mmHg 65%
    05:00 +1°C° 0 mm 1 m/S 696 mmHg 64%
    06:00 +1°C° 0 mm 1 m/S 696 mmHg 64%
    07:00 +2°C° 0 mm 1 m/S 697 mmHg 60%
    08:00 +2°C° 0 mm 2 m/S 697 mmHg 55%
    09:00 +2°C° 0 mm 2 m/S 698 mmHg 51%
    10:00 +3°C° 0 mm 2 m/S 698 mmHg 48%
    11:00 +4°C° 0 mm 2 m/S 697 mmHg 45%
    12:00 +5°C° 0 mm 2 m/S 697 mmHg 42%
    13:00 +5°C° 0 mm 2 m/S 697 mmHg 43%
    14:00 +5°C° 0 mm 2 m/S 697 mmHg 44%
    15:00 +4°C° 0 mm 2 m/S 697 mmHg 45%
    16:00 +3°C° 0 mm 2 m/S 697 mmHg 50%
    17:00 +3°C° 0 mm 1 m/S 697 mmHg 55%
    18:00 +2°C° 0 mm 1 m/S 698 mmHg 60%
    19:00 +1°C° 0 mm 1 m/S 698 mmHg 60%
    20:00 +1°C° 0 mm 1 m/S 698 mmHg 60%
    21:00 +1°C° 0 mm 1 m/S 698 mmHg 60%
    22:00 0°C° 0 mm 1 m/S 698 mmHg 60%
    23:00 0°C° 0 mm 1 m/S 698 mmHg 60%
    Mehr zeigen